1501030800.6,3615,18.5,72930.0,-1.69,-3.47,-3.59,0,*60
1501030801.86,3616,18.56,72928.3,-1.69,-3.43,-3.55,0,*6B
1501030803.1,3617,18.56,72930.3,-1.71,-3.51,-3.51,0,*64
1501030804.34,3618,18.56,72928.5,-1.69,-3.35,-3.43,0,*63
1501030805.53,3619,18.56,72930.5,-1.71,-3.39,-3.35,0,*66
1501030806.73,3620,18.5,72928.5,-1.71,-3.31,-3.35,0,*64
1501030807.95,3621,18.56,72930.5,-1.69,-3.19,-3.27,0,*65
1501030809.14,3622,18.56,72932.3,-1.71,-3.15,-3.15,0,*62
1501030810.34,3623,18.56,72938.3,-1.71,-2.99,-2.99,0,*63
1501030811.54,3624,18.56,72934.8,-1.71,-2.95,-2.95,0,*64
1501030812.75,3625,18.56,72934.3,-1.69,-3.15,-3.15,0,*6C
1501030813.97,3626,18.56,72934.0,-1.69,-3.07,-3.07,0,*6F
1501030815.16,3627,18.56,72932.0,-1.71,-3.19,-3.19,0,*67
1501030816.35,3628,18.56,72934.8,-1.71,-3.19,-3.19,0,*68
1501030817.54,3629,18.56,72932.3,-1.71,-3.19,-3.19,0,*69
1501030818.75,3630,18.56,72930.5,-1.69,-3.15,-3.15,0,*68
1501030819.94,3631,18.5,72930.8,-1.71,-3.19,-3.19,0,*60
1501030821.15,3632,18.56,72934.0,-1.69,-3.15,-3.15,0,*6A
1501030822.37,3633,18.56,72930.5,-1.69,-3.15,-3.19,0,*67
1501030823.59,3634,18.56,72932.8,-1.69,-3.19,-3.27,0,*61
1501030824.77,3635,18.56,72934.0,-1.71,-3.23,-3.23,0,*64
1501030825.98,3636,18.56,72930.8,-1.69,-3.19,-3.19,0,*6E
1501030827.18,3637,18.5,72930.0,-1.71,-3.31,-3.31,0,*66
1501030828.39,3638,18.56,72932.5,-1.69,-3.19,-3.19,0,*60
1501030829.58,3639,18.56,72934.0,-1.71,-3.19,-3.27,0,*65
1501030830.79,3640,18.56,72932.5,-1.69,-3.19,-3.19,0,*6F
1501030831.98,3641,18.56,72934.8,-1.71,-3.23,-3.23,0,*67
1501030833.16,3642,18.56,72936.3,-1.71,-3.23,-3.23,0,*64
1501030834.37,3643,18.56,72932.0,-1.69,-3.19,-3.19,0,*6C
1501030835.55,3644,18.56,72934.5,-1.71,-3.23,-3.23,0,*62
1501030836.73,3645,18.56,72934.8,-1.71,-3.23,-3.23,0,*63
1501030837.92,3646,18.56,72936.3,-1.71,-3.23,-3.19,0,*69
1501030839.11,3647,18.56,72932.8,-1.71,-3.23,-3.19,0,*68
1501030840.29,3648,18.56,72932.5,-1.71,-3.31,-3.23,0,*6D
1501030841.48,3649,18.56,72932.5,-1.71,-3.23,-3.31,0,*6C
1501030842.67,3650,18.56,72932.5,-1.71,-3.35,-3.31,0,*63
1501030843.87,3651,18.5,72930.8,-1.71,-3.35,-3.35,0,*66
1501030845.06,3652,18.5,72930.0,-1.71,-3.35,-3.39,0,*69
1501030846.28,3653,18.56,72932.5,-1.73,-3.31,-3.35,0,*62
1501030847.5,3654,18.56,72934.8,-1.73,-3.35,-3.35,0,*61
1501030848.7,3655,18.56,72932.3,-1.73,-3.23,-3.31,0,*63
1501030849.91,3656,18.5,72930.8,-1.73,-3.23,-3.31,0,*60
1501030851.11,3657,18.5,72930.8,-1.75,-3.27,-3.27,0,*64
1501030852.3,3658,18.56,72932.3,-1.71,-3.11,-3.07,0,*68
1501030853.52,3659,18.5,72932.5,-1.73,-3.19,-3.11,0,*64
1501030854.73,3660,18.56,72934.3,-1.73,-3.19,-3.19,0,*66
1501030855.93,3661,18.5,72930.3,-1.75,-3.27,-3.27,0,*61
1501030857.13,3662,18.56,72934.0,-1.73,-3.23,-3.31,0,*67
1501030858.35,3663,18.56,72934.8,-1.73,-3.31,-3.39,0,*6D
1501030859.54,3664,18.56,72932.3,-1.75,-3.35,-3.39,0,*68
1501030860.75,3665,18.56,72934.5,-1.73,-3.23,-3.23,0,*63
1501030861.95,3666,18.5,72930.0,-1.73,-3.23,-3.23,0,*60
1501030863.15,3667,18.56,72934.0,-1.75,-3.35,-3.27,0,*64
1501030864.35,3668,18.5,72930.0,-1.73,-3.23,-3.23,0,*6E
1501030865.56,3669,18.5,72930.3,-1.73,-3.23,-3.31,0,*6C
1501030866.76,3670,18.56,72932.0,-1.75,-3.27,-3.27,0,*61
1501030867.94,3671,18.56,72934.3,-1.75,-3.19,-3.23,0,*69
1501030869.15,3672,18.56,72934.8,-1.73,-3.19,-3.23,0,*6C
1501030870.36,3673,18.56,72932.3,-1.73,-3.31,-3.23,0,*67
1501030871.56,3674,18.56,72934.8,-1.73,-3.23,-3.23,0,*63
1501030872.77,3675,18.56,72934.3,-1.73,-3.23,-3.31,0,*61
1501030873.97,3676,18.5,72928.0,-1.73,-3.23,-3.23,0,*61
1501030875.17,3677,18.56,72934.8,-1.75,-3.27,-3.27,0,*66
1501030876.37,3678,18.56,72934.3,-1.75,-3.27,-3.27,0,*69
1501030877.58,3679,18.56,72934.3,-1.73,-3.31,-3.31,0,*6E
1501030878.78,3680,18.5,72930.3,-1.73,-3.23,-3.23,0,*68
1501030879.97,3681,18.56,72934.5,-1.75,-3.15,-3.23,0,*6A
1501030881.16,3682,18.56,72932.0,-1.75,-3.15,-3.15,0,*6C
1501030882.38,3683,18.56,72938.8,-1.73,-3.19,-3.07,0,*64
1501030883.56,3684,18.5,72934.3,-1.75,-3.23,-3.15,0,*6F
1501030884.77,3685,18.56,72934.0,-1.73,-3.07,-3.11,0,*6A
1501030885.98,3686,18.56,72932.5,-1.73,-3.07,-3.19,0,*61
1501030887.17,3687,18.56,72934.5,-1.75,-3.23,-3.23,0,*69
1501030888.37,3688,18.56,72934.0,-1.73,-3.23,-3.19,0,*69
1501030889.57,3689,18.5,72932.5,-1.75,-3.35,-3.35,0,*67
1501030890.78,3690,18.5,72930.3,-1.73,-3.31,-3.23,0,*6A
1501030891.97,3691,18.56,72932.0,-1.75,-3.35,-3.35,0,*6E
1501030893.17,3692,18.56,72932.5,-1.75,-3.35,-3.35,0,*6D
1501030894.37,3693,18.56,72934.3,-1.75,-3.27,-3.27,0,*6C
1501030895.57,3694,18.56,72932.3,-1.75,-3.35,-3.27,0,*68
1501030896.77,3695,18.56,72930.8,-1.75,-3.35,-3.27,0,*69
1501030897.96,3696,18.56,72932.0,-1.75,-3.35,-3.39,0,*65
1501030899.16,3697,18.5,72930.0,-1.75,-3.35,-3.27,0,*6B
1501030900.36,3698,18.56,72932.0,-1.75,-3.27,-3.27,0,*67
1501030901.56,3699,18.56,72932.3,-1.75,-3.27,-3.27,0,*66
1501030902.76,3700,18.56,72936.3,-1.75,-3.27,-3.35,0,*64
1501030903.94,3701,18.56,72932.8,-1.75,-3.23,-3.31,0,*65
1501030905.14,3702,18.56,72934.3,-1.75,-3.27,-3.27,0,*65
1501030906.34,3703,18.56,72932.0,-1.75,-3.27,-3.27,0,*64
1501030907.56,3704,18.56,72934.5,-1.77,-3.15,-3.23,0,*64
1501030908.76,3705,18.5,72932.0,-1.77,-3.23,-3.23,0,*60
1501030909.97,3706,18.56,72932.3,-1.77,-3.23,-3.23,0,*63
1501030911.16,3707,18.56,72932.3,-1.75,-3.23,-3.15,0,*65
1501030912.34,3708,18.56,72932.0,-1.75,-3.23,-3.23,0,*6F
1501030913.53,3709,18.5,72930.5,-1.75,-3.15,-3.23,0,*6B
1501030914.75,3710,18.56,72932.0,-1.77,-3.15,-3.15,0,*64
1501030915.96,3711,18.56,72928.0,-1.77,-3.11,-3.15,0,*61
1501030917.18,3712,18.5,72930.8,-1.77,-3.15,-3.15,0,*66
1501030918.39,3713,18.5,72930.5,-1.77,-3.23,-3.15,0,*62
1501030919.57,3714,18.56,72932.3,-1.75,-3.23,-3.23,0,*62
1501030920.77,3715,18.56,72934.8,-1.75,-3.15,-3.15,0,*63
1501030921.96,3716,18.56,72932.3,-1.75,-3.15,-3.15,0,*60
1501030923.15,3717,18.5,72930.0,-1.75,-3.11,-3.11,0,*61
1501030924.34,3718,18.56,72936.5,-1.75,-3.03,-3.03,0,*6E
1501030925.53,3719,18.56,72932.8,-1.75,-3.03,-3.11,0,*6C
1501030926.73,3720,18.56,72932.8,-1.75,-3.11,-3.03,0,*66
1501030927.92,3721,18.56,72934.8,-1.75,-2.99,-3.03,0,*66
1501030929.11,3722,18.56,72932.5,-1.75,-3.11,-3.11,0,*67
1501030930.31,3723,18.56,72932.8,-1.75,-3.11,-3.11,0,*66
1501030931.5,3724,18.56,72934.8,-1.75,-3.11,-3.11,0,*61
1501030932.68,3725,18.56,72934.5,-1.75,-3.23,-3.23,0,*60
1501030933.86,3726,18.56,72934.8,-1.75,-3.23,-3.23,0,*63
1501030935.05,3727,18.5,72930.3,-1.75,-3.23,-3.23,0,*62
1501030936.23,3728,18.56,72934.8,-1.75,-3.23,-3.35,0,*6A
1501030937.45,3729,18.5,72932.3,-1.75,-3.35,-3.43,0,*6D
1501030938.65,3730,18.5,72932.0,-1.75,-3.27,-3.27,0,*64
1501030939.85,3731,18.5,72930.8,-1.75,-3.27,-3.35,0,*66
1501030941.04,3732,18.56,72934.3,-1.75,-3.23,-3.27,0,*62
1501030942.24,3733,18.56,72932.0,-1.75,-3.35,-3.35,0,*67
1501030943.46,3734,18.5,72932.3,-1.77,-3.35,-3.35,0,*62
1501030944.68,3735,18.56,72936.0,-1.77,-3.27,-3.27,0,*63
1501030945.91,3736,18.56,72934.0,-1.77,-3.35,-3.39,0,*6C
1501030947.13,3737,18.56,72934.5,-1.77,-3.35,-3.27,0,*62
1501030948.36,3738,18.5,72928.8,-1.77,-3.27,-3.27,0,*6E
1501030949.55,3739,18.56,72932.0,-1.81,-3.35,-3.35,0,*66
1501030950.77,3740,18.5,72932.8,-1.77,-3.35,-3.27,0,*62
1501030952.0,3741,18.56,72934.5,-1.77,-3.27,-3.27,0,*60
1501030953.22,3742,18.5,72932.5,-1.77,-3.27,-3.27,0,*63
1501030954.45,3743,18.5,72930.8,-1.77,-3.27,-3.27,0,*62
1501030955.64,3744,18.56,72932.8,-1.81,-3.27,-3.27,0,*6C
1501030956.83,3745,18.56,72932.0,-1.81,-3.27,-3.35,0,*6E
1501030958.02,3746,18.56,72932.5,-1.81,-3.35,-3.35,0,*6E
1501030959.21,3747,18.56,72934.3,-1.81,-3.31,-3.31,0,*6F
1501030960.4,3748,18.56,72934.0,-1.81,-3.35,-3.35,0,*60
1501030961.64,3749,18.56,72932.0,-1.83,-3.35,-3.47,0,*66
1501030962.87,3750,18.56,72936.0,-1.81,-3.43,-3.47,0,*6D
1501030964.08,3751,18.5,72930.0,-1.81,-3.35,-3.43,0,*69
1501030965.27,3752,18.5,72928.5,-1.81,-3.27,-3.27,0,*6B
1501030966.46,3753,18.56,72932.0,-1.81,-3.31,-3.35,0,*6E
1501030967.65,3754,18.5,72932.8,-1.81,-3.35,-3.35,0,*6D
1501030968.86,3755,18.56,72934.3,-1.81,-3.35,-3.43,0,*6D
1501030970.07,3756,18.56,72934.8,-1.81,-3.35,-3.43,0,*6E
1501030971.3,3757,18.56,72934.3,-1.77,-3.27,-3.35,0,*64
1501030972.53,3758,18.56,72934.8,-1.81,-3.43,-3.43,0,*61
1501030973.74,3759,18.56,72934.3,-1.81,-3.43,-3.35,0,*61
1501030974.96,3760,18.5,72930.8,-1.83,-3.35,-3.35,0,*68
1501030976.22,3761,18.56,72934.8,-1.83,-3.43,-3.47,0,*6D
1501030977.44,3762,18.5,72932.8,-1.83,-3.35,-3.35,0,*6A
1501030978.66,3763,18.56,72934.8,-1.83,-3.35,-3.35,0,*6B
1501030979.88,3764,18.56,72934.5,-1.83,-3.35,-3.35,0,*6C
1501030981.12,3765,18.56,72932.0,-1.83,-3.35,-3.43,0,*6C
1501030982.38,3766,18.56,72932.0,-1.83,-3.43,-3.43,0,*6E
1501030983.61,3767,18.5,72930.3,-1.85,-3.51,-3.47,0,*6E
1501030984.84,3768,18.56,72934.3,-1.85,-3.51,-3.55,0,*62
1501030986.07,3769,18.56,72934.0,-1.85,-3.51,-3.55,0,*63
1501030987.31,3770,18.56,72932.5,-1.85,-3.51,-3.51,0,*6F
1501030988.49,3771,18.56,72932.0,-1.85,-3.39,-3.39,0,*6E
1501030989.68,3772,18.56,72936.5,-1.85,-3.27,-3.35,0,*6E
1501030990.89,3773,18.56,72932.8,-1.83,-3.23,-3.31,0,*69
1501030992.07,3774,18.5,72932.0,-1.85,-3.15,-3.23,0,*6E
1501030993.26,3775,18.5,72932.8,-1.85,-3.19,-3.31,0,*60
1501030994.47,3776,18.5,72934.3,-1.83,-3.31,-3.31,0,*6F
1501030995.66,3777,18.56,72932.8,-1.85,-3.35,-3.39,0,*64
1501030996.85,3778,18.56,72932.5,-1.85,-3.35,-3.39,0,*6B
1501030998.04,3779,18.56,72932.8,-1.85,-3.35,-3.35,0,*66
1501030999.22,3780,18.5,72934.3,-1.85,-3.15,-3.15,0,*60
1501031000.4,3781,18.56,72934.5,-1.85,-3.23,-3.23,0,*61
1501031001.62,3782,18.5,72930.3,-1.83,-3.35,-3.35,0,*64
1501031002.84,3783,18.56,72934.3,-1.83,-3.31,-3.31,0,*65
1501031004.01,3784,18.56,72934.8,-1.85,-3.11,-3.23,0,*65
1501031005.2,3785,18.56,72934.0,-1.85,-3.11,-3.11,0,*65
1501031006.41,3786,18.56,72934.8,-1.83,-3.19,-3.19,0,*60
1501031007.6,3787,18.56,72934.3,-1.85,-3.15,-3.27,0,*66
1501031008.79,3788,18.56,72932.0,-1.85,-3.03,-3.11,0,*6B
1501031009.96,3789,18.56,72934.8,-1.85,-3.23,-3.23,0,*69
1501031011.18,3790,18.5,72932.5,-1.83,-3.19,-3.19,0,*67
1501031012.35,3791,18.5,72930.8,-1.85,-3.23,-3.23,0,*60
1501031013.54,3792,18.56,72932.5,-1.85,-3.15,-3.15,0,*63
1501031014.75,3793,18.5,72930.3,-1.83,-3.19,-3.23,0,*6D
1501031015.96,3794,18.5,72932.3,-1.83,-3.19,-3.31,0,*69
1501031017.17,3795,18.5,72934.0,-1.83,-3.11,-3.19,0,*6A
1501031018.38,3796,18.56,72934.3,-1.83,-3.23,-3.19,0,*68
1501031019.59,3797,18.5,72934.5,-1.83,-3.23,-3.31,0,*63
1501031020.78,3798,18.56,72932.8,-1.85,-3.27,-3.27,0,*69
1501031021.97,3799,18.56,72934.3,-1.85,-3.35,-3.39,0,*64
1501031023.19,3800,18.5,72934.8,-1.83,-3.31,-3.35,0,*65
1501031024.37,3801,18.56,72934.8,-1.85,-3.19,-3.23,0,*6F
1501031025.58,3802,18.56,72934.3,-1.83,-3.23,-3.27,0,*67
1501031026.8,3803,18.5,72934.5,-1.83,-3.19,-3.31,0,*68
1501031027.99,3804,18.56,72938.0,-1.85,-3.35,-3.35,0,*63
1501031029.18,3805,18.56,72932.0,-1.85,-3.27,-3.27,0,*62
1501031030.39,3806,18.5,72930.5,-1.83,-3.11,-3.23,0,*66
1501031031.6,3807,18.5,72932.0,-1.83,-3.07,-3.11,0,*61
1501031032.82,3808,18.56,72934.0,-1.83,-3.11,-3.11,0,*69
1501031034.03,3809,18.5,72932.8,-1.83,-3.11,-3.19,0,*60
1501031035.21,3810,18.56,72936.5,-1.81,-3.19,-3.19,0,*62
1501031036.4,3811,18.5,72934.5,-1.85,-3.23,-3.35,0,*60
1501031037.58,3812,18.5,72932.0,-1.81,-3.11,-3.19,0,*68
1501031038.76,3813,18.56,72938.5,-1.85,-3.11,-3.15,0,*61
1501031039.98,3814,18.5,72932.0,-1.83,-3.11,-3.11,0,*64
1501031041.2,3815,18.56,72934.5,-1.83,-3.11,-3.11,0,*65
1501031042.4,3816,18.5,72932.5,-1.83,-3.23,-3.23,0,*66
1501031043.61,3817,18.5,72932.5,-1.83,-3.31,-3.23,0,*64
1501031044.82,3818,18.56,72936.3,-1.83,-3.23,-3.23,0,*68
1501031046.01,3819,18.5,72932.8,-1.85,-3.31,-3.35,0,*6B
1501031047.2,3820,18.56,72934.0,-1.85,-3.39,-3.39,0,*65
1501031048.38,3821,18.56,72934.0,-1.85,-3.35,-3.35,0,*64
1501031049.58,3822,18.5,72934.8,-1.85,-3.27,-3.27,0,*67
1501031050.76,3823,18.56,72936.3,-1.85,-3.19,-3.23,0,*6F
1501031051.97,3824,18.56,72938.0,-1.83,-3.11,-3.11,0,*67
1501031053.19,3825,18.5,72932.5,-1.83,-3.07,-2.99,0,*60
1501031054.38,3826,18.56,72938.5,-1.85,-3.11,-3.11,0,*63
1501031055.55,3827,18.5,72934.8,-1.85,-3.23,-3.23,0,*62
1501031056.74,3828,18.5,72932.5,-1.85,-3.15,-3.15,0,*6D
1501031057.96,3829,18.5,72934.5,-1.83,-2.95,-2.99,0,*66
1501031059.15,3830,18.56,72936.8,-1.81,-2.99,-2.99,0,*60
1501031060.37,3831,18.5,72932.8,-1.83,-3.11,-3.07,0,*64
1501031061.56,3832,18.56,72938.8,-1.81,-3.19,-3.11,0,*6A
1501031062.77,3833,18.5,72932.3,-1.83,-3.11,-3.11,0,*61
1501031063.99,3834,18.56,72936.8,-1.83,-3.19,-3.31,0,*6C
1501031065.18,3835,18.56,72936.0,-1.85,-3.27,-3.27,0,*61
1501031066.39,3836,18.5,72932.8,-1.83,-3.19,-3.19,0,*64
1501031067.6,3837,18.5,72934.0,-1.83,-3.19,-3.19,0,*65
1501031068.79,3838,18.5,72934.5,-1.85,-3.27,-3.35,0,*6F
1501031070.0,3839,18.56,72936.0,-1.83,-3.19,-3.19,0,*6B
1501031071.21,3840,18.56,72936.0,-1.83,-3.19,-3.23,0,*6C
1501031072.43,3841,18.56,72936.0,-1.83,-3.07,-3.07,0,*64
1501031073.62,3842,18.5,72934.0,-1.85,-3.15,-3.03,0,*66
1501031074.84,3843,18.5,72932.3,-1.83,-2.99,-2.99,0,*66
1501031076.02,3844,18.5,72932.5,-1.85,-3.11,-3.11,0,*67
1501031077.24,3845,18.5,72932.0,-1.83,-3.11,-3.19,0,*68
1501031078.44,3846,18.56,72934.0,-1.83,-3.23,-3.23,0,*63
1501031079.62,3847,18.5,72932.8,-1.85,-3.23,-3.23,0,*64
1501031080.83,3848,18.5,72936.0,-1.83,-3.31,-3.31,0,*6D
1501031082.04,3849,18.5,72932.0,-1.83,-3.23,-3.23,0,*6C
1501031083.24,3850,18.56,72938.0,-1.83,-3.23,-3.23,0,*64
1501031084.43,3851,18.5,72934.0,-1.85,-3.15,-3.27,0,*62
1501031085.64,3852,18.56,72938.5,-1.83,-3.19,-3.23,0,*6F
1501031086.86,3853,18.5,72932.8,-1.83,-3.19,-3.11,0,*6F
1501031088.08,3854,18.5,72936.0,-1.83,-3.11,-3.11,0,*60
1501031089.3,3855,18.5,72936.3,-1.83,-2.95,-2.99,0,*6D
1501031090.52,3856,18.5,72934.3,-1.83,-2.95,-3.07,0,*68
1501031091.74,3857,18.56,72938.5,-1.83,-2.99,-3.11,0,*62
1501031092.95,3858,18.5,72936.3,-1.83,-3.11,-3.11,0,*6C
1501031094.14,3859,18.56,72936.0,-1.85,-3.11,-3.15,0,*6F
1501031095.36,3860,18.5,72934.5,-1.83,-2.99,-2.99,0,*67
1501031096.57,3861,18.5,72934.0,-1.83,-3.07,-3.07,0,*66
1501031097.78,3862,18.5,72936.0,-1.83,-3.07,-3.19,0,*6A
1501031099.0,3863,18.56,72936.0,-1.83,-3.11,-3.11,0,*64
1501031100.21,3864,18.5,72934.0,-1.83,-3.11,-3.19,0,*6B
1501031101.42,3865,18.5,72932.0,-1.83,-3.19,-3.19,0,*62
1501031102.64,3866,18.5,72934.5,-1.83,-3.19,-3.19,0,*61
1501031103.85,3867,18.56,72936.8,-1.77,-3.03,-3.11,0,*68
1501031105.06,3868,18.5,72936.5,-1.83,-3.19,-3.23,0,*66
1501031106.28,3869,18.56,72936.0,-1.83,-3.11,-3.11,0,*6E
1501031107.46,3870,18.56,72938.0,-1.85,-3.03,-3.03,0,*60
1501031108.68,3871,18.56,72936.0,-1.83,-3.19,-3.11,0,*6F
1501031109.86,3872,18.5,72934.5,-1.85,-3.15,-3.23,0,*67
1501031111.04,3873,18.5,72932.8,-1.81,-3.11,-3.19,0,*6F
1501031112.26,3874,18.5,72932.5,-1.83,-2.99,-3.07,0,*64
1501031113.48,3875,18.5,72936.3,-1.83,-3.07,-3.07,0,*63
1501031114.69,3876,18.56,72938.5,-1.83,-3.11,-3.11,0,*60
1501031115.88,3877,18.5,72936.3,-1.81,-3.11,-3.19,0,*6B
1501031117.09,3878,18.56,72936.3,-1.83,-3.19,-3.19,0,*6E
1501031118.27,3879,18.56,72938.0,-1.85,-3.23,-3.27,0,*6D
1501031119.49,3880,18.5,72932.3,-1.83,-3.31,-3.31,0,*69
1501031120.71,3881,18.5,72932.3,-1.83,-3.31,-3.31,0,*68
1501031121.9,3882,18.56,72934.8,-1.85,-3.27,-3.35,0,*6E
1501031123.11,3883,18.56,72938.3,-1.83,-3.11,-3.23,0,*6B
1501031124.32,3884,18.56,72936.0,-1.83,-3.11,-3.11,0,*6D
1501031125.5,3885,18.5,72934.8,-1.85,-3.11,-3.15,0,*6E
1501031126.69,3886,18.56,72936.0,-1.85,-3.03,-3.11,0,*6A
1501031127.88,3887,18.56,72934.5,-1.85,-3.03,-3.03,0,*68
1501031129.09,3888,18.56,72932.8,-1.83,-3.07,-3.07,0,*61
1501031130.28,3889,18.56,72936.8,-1.85,-3.15,-3.15,0,*66
1501031131.5,3890,18.56,72934.0,-1.83,-2.99,-2.99,0,*68
1501031132.71,3891,18.56,72936.0,-1.83,-2.87,-3.03,0,*64
1501031133.94,3892,18.5,72932.5,-1.83,-2.95,-2.95,0,*6A
1501031135.16,3893,18.56,72934.0,-1.83,-2.99,-2.95,0,*67
1501031136.38,3894,18.56,72936.0,-1.83,-2.87,-2.99,0,*63
1501031137.6,3895,18.56,72936.5,-1.83,-3.03,-2.99,0,*6F
1501031138.82,3896,18.56,72938.3,-1.83,-2.95,-2.87,0,*6D
1501031140.04,3897,18.56,72936.0,-1.83,-2.87,-2.95,0,*6C
1501031141.26,3898,18.5,72934.3,-1.83,-2.99,-2.99,0,*60
1501031142.48,3899,18.5,72936.8,-1.83,-2.99,-2.99,0,*61
1501031143.7,3900,18.56,72940.5,-1.83,-2.87,-2.95,0,*63
1501031144.92,3901,18.5,72936.0,-1.83,-2.95,-2.87,0,*62
1501031146.13,3902,18.5,72932.8,-1.83,-2.99,-3.07,0,*64
1501031147.35,3903,18.5,72936.8,-1.83,-3.07,-3.07,0,*63
1501031148.54,3904,18.5,72934.5,-1.81,-2.99,-2.99,0,*66
1501031149.75,3905,18.5,72938.0,-1.77,-2.91,-2.91,0,*6E
1501031150.94,3906,18.5,72936.3,-1.81,-2.99,-3.07,0,*62
1501031152.12,3907,18.5,72934.8,-1.81,-3.07,-3.07,0,*65
1501031153.31,3908,18.5,72936.0,-1.81,-3.11,-3.11,0,*6A
1501031154.49,3909,18.5,72934.5,-1.81,-3.11,-3.19,0,*63
1501031155.68,3910,18.5,72934.5,-1.81,-3.11,-3.11,0,*63
1501031156.86,3911,18.56,72938.8,-1.81,-3.19,-3.23,0,*6B
1501031158.04,3912,18.56,72938.5,-1.81,-3.23,-3.31,0,*62
1501031159.23,3913,18.56,72934.8,-1.81,-3.31,-3.31,0,*60
1501031160.43,3914,18.5,72936.5,-1.83,-3.23,-3.23,0,*65
1501031161.64,3915,18.5,72934.5,-1.83,-3.19,-3.23,0,*6D
1501031162.85,3916,18.56,72936.3,-1.83,-3.23,-3.23,0,*67
1501031164.05,3917,18.5,72934.8,-1.83,-3.23,-3.23,0,*66
1501031165.26,3918,18.56,72936.8,-1.83,-3.23,-3.23,0,*69
1501031166.47,3919,18.5,72934.0,-1.83,-2.99,-3.07,0,*6E
1501031167.69,3920,18.56,72938.8,-1.83,-2.87,-2.95,0,*61
1501031168.91,3921,18.5,72934.3,-1.83,-2.87,-2.95,0,*60
1501031170.14,3922,18.5,72934.5,-1.83,-2.95,-2.95,0,*60
1501031171.36,3923,18.56,72936.0,-1.83,-2.95,-3.07,0,*6B
1501031172.59,3924,18.5,72934.0,-1.83,-2.95,-2.99,0,*6A
1501031173.78,3925,18.5,72936.3,-1.81,-2.87,-2.95,0,*66
1501031174.99,3926,18.5,72938.0,-1.77,-2.79,-2.87,0,*6E
1501031176.18,3927,18.5,72938.5,-1.81,-2.87,-2.83,0,*63
1501031177.42,3928,18.5,72932.8,-1.81,-2.71,-2.63,0,*6B
1501031178.69,3929,18.56,72936.0,-1.77,-2.67,-2.67,0,*60
1501031179.87,3930,18.5,72934.3,-1.81,-2.83,-2.83,0,*61
1501031181.06,3931,18.5,72932.8,-1.81,-2.87,-2.83,0,*64
1501031182.31,3932,18.5,72934.5,-1.77,-2.79,-2.75,0,*66
1501031183.58,3933,18.5,72934.0,-1.77,-2.67,-2.63,0,*6F
1501031184.86,3934,18.5,72934.0,-1.77,-2.63,-2.55,0,*69
1501031186.1,3935,18.56,72936.3,-1.81,-2.63,-2.75,0,*63
1501031187.37,3936,18.5,72934.0,-1.77,-2.55,-2.67,0,*6F
1501031188.65,3937,18.5,72936.3,-1.77,-2.63,-2.63,0,*6F
1501031189.92,3938,18.56,72938.5,-1.77,-2.67,-2.75,0,*63
1501031191.17,3939,18.5,72936.3,-1.75,-2.75,-2.67,0,*60
1501031192.42,3940,18.5,72934.5,-1.75,-2.63,-2.63,0,*6D
1501031193.66,3941,18.5,72934.8,-1.75,-2.55,-2.55,0,*6C
1501031194.93,3942,18.5,72932.5,-1.73,-2.51,-2.59,0,*61
1501031196.19,3943,18.5,72934.5,-1.73,-2.51,-2.59,0,*60
1501031197.46,3944,18.5,72934.5,-1.73,-2.47,-2.47,0,*6F
1501031198.73,3945,18.5,72932.0,-1.73,-2.47,-2.47,0,*6E
1501031200.0,3946,18.5,72934.0,-1.73,-2.47,-2.51,0,*6A
1501031201.28,3947,18.56,72934.3,-1.73,-2.47,-2.47,0,*6C
1501031202.53,3948,18.5,72932.0,-1.71,-2.47,-2.47,0,*61
1501031203.8,3949,18.5,72932.8,-1.73,-2.47,-2.47,0,*62
1501031205.05,3950,18.5,72934.3,-1.71,-2.47,-2.47,0,*68
1501031206.27,3951,18.5,72932.0,-1.71,-2.43,-2.47,0,*6D
1501031207.48,3952,18.5,72934.3,-1.69,-2.43,-2.43,0,*63
1501031208.73,3953,18.56,72936.8,-1.71,-2.47,-2.47,0,*6B
1501031209.94,3954,18.5,72934.0,-1.69,-2.43,-2.43,0,*65
1501031211.18,3955,18.5,72934.3,-1.69,-2.43,-2.47,0,*60
1501031212.43,3956,18.5,72934.0,-1.71,-2.47,-2.51,0,*69
1501031213.71,3957,18.5,72932.8,-1.69,-2.47,-2.47,0,*66
1501031214.98,3958,18.56,72936.3,-1.69,-2.47,-2.47,0,*69
1501031216.23,3959,18.5,72934.0,-1.69,-2.47,-2.39,0,*61
1501031217.44,3960,18.5,72934.8,-1.69,-2.27,-2.27,0,*62
1501031218.63,3961,18.5,72934.0,-1.67,-2.19,-2.19,0,*6D
1501031219.82,3962,18.5,72934.8,-1.67,-2.19,-2.15,0,*62
1501031221.04,3963,18.5,72934.3,-1.67,-2.15,-2.07,0,*6C
1501031222.31,3964,18.5,72932.0,-1.65,-1.91,-1.91,0,*6A
1501031223.52,3965,18.5,72930.8,-1.65,-2.15,-2.23,0,*6E
1501031224.74,3966,18.5,72936.0,-1.65,-2.23,-2.23,0,*68
1501031225.95,3967,18.5,72932.8,-1.65,-2.27,-2.27,0,*69
1501031227.15,3968,18.5,72936.8,-1.63,-2.31,-2.31,0,*60
1501031228.34,3969,18.5,72936.0,-1.63,-2.23,-2.23,0,*61
1501031229.54,3970,18.5,72934.8,-1.63,-2.35,-2.35,0,*69
1501031230.73,3971,18.5,72936.3,-1.63,-2.31,-2.31,0,*68
1501031231.93,3972,18.5,72934.5,-1.63,-2.19,-2.23,0,*62
1501031233.2,3973,18.5,72932.3,-1.61,-2.11,-2.11,0,*68
1501031234.42,3974,18.5,72934.8,-1.61,-2.19,-2.31,0,*65
1501031235.64,3975,18.5,72936.8,-1.61,-2.19,-2.19,0,*6E
1501031236.83,3976,18.5,72934.8,-1.63,-2.19,-2.19,0,*6F
1501031238.05,3977,18.5,72936.0,-1.61,-2.19,-2.23,0,*65
1501031239.27,3978,18.5,72934.0,-1.61,-2.23,-2.31,0,*60
1501031240.49,3979,18.5,72938.0,-1.61,-2.35,-2.35,0,*62
1501031241.71,3980,18.5,72934.8,-1.61,-2.39,-2.39,0,*64
1501031242.96,3981,18.5,72938.3,-1.61,-2.47,-2.39,0,*6C
1501031244.17,3982,18.56,72938.8,-1.61,-2.35,-2.39,0,*6A
1501031245.4,3983,18.5,72936.5,-1.61,-2.19,-2.31,0,*6D
1501031246.59,3984,18.5,72936.0,-1.59,-2.19,-2.19,0,*6B
1501031247.79,3985,18.5,72938.5,-1.55,-2.31,-2.31,0,*66
1501031248.98,3986,18.5,72938.8,-1.59,-2.27,-2.31,0,*6E
1501031250.19,3987,18.5,72936.8,-1.59,-2.31,-2.31,0,*68
1501031251.41,3988,18.5,72938.5,-1.59,-2.43,-2.47,0,*63
1501031252.63,3989,18.56,72938.0,-1.59,-2.43,-2.47,0,*62
1501031253.82,3990,18.5,72932.8,-1.55,-2.43,-2.43,0,*62
1501031255.01,3991,18.5,72932.8,-1.55,-2.35,-2.35,0,*63
1501031256.2,3992,18.5,72932.0,-1.55,-2.31,-2.35,0,*64
1501031257.4,3993,18.5,72932.3,-1.55,-2.31,-2.35,0,*65
1501031258.59,3994,18.5,72934.3,-1.59,-2.43,-2.43,0,*6A
1501031259.78,3995,18.5,72932.0,-1.59,-2.35,-2.35,0,*6B
1501031260.98,3996,18.5,72934.5,-1.59,-2.35,-2.31,0,*6C
1501031262.17,3997,18.5,72936.3,-1.55,-2.19,-2.15,0,*69
1501031263.39,3998,18.5,72938.0,-1.55,-2.15,-2.07,0,*69
1501031264.58,3999,18.5,72934.0,-1.55,-2.19,-2.19,0,*6B
1501031265.8,4000,18.5,72932.8,-1.55,-2.15,-2.07,0,*66
1501031267.0,4001,18.5,72934.8,-1.55,-2.19,-2.19,0,*64
1501031268.21,4002,18.5,72934.3,-1.53,-2.15,-2.15,0,*61
1501031269.43,4003,18.5,72938.0,-1.53,-2.23,-2.23,0,*60
1501031270.64,4004,18.5,72934.8,-1.53,-2.27,-2.27,0,*67
1501031271.85,4005,18.5,72932.5,-1.53,-2.27,-2.27,0,*66
1501031273.04,4006,18.5,72932.3,-1.51,-2.15,-2.23,0,*62
1501031274.25,4007,18.5,72932.3,-1.53,-2.23,-2.23,0,*64
1501031275.44,4008,18.5,72934.0,-1.51,-2.23,-2.23,0,*69
1501031276.63,4009,18.5,72932.8,-1.51,-2.23,-2.15,0,*6D
1501031277.85,4010,18.5,72934.3,-1.53,-2.23,-2.23,0,*62
1501031279.03,4011,18.5,72932.3,-1.51,-2.23,-2.27,0,*65
1501031280.22,4012,18.5,72932.0,-1.51,-2.23,-2.27,0,*66
1501031281.41,4013,18.5,72934.5,-1.51,-2.27,-2.23,0,*67
1501031282.62,4014,18.5,72936.3,-1.49,-2.19,-2.19,0,*6D
1501031283.8,4015,18.5,72934.5,-1.51,-2.27,-2.27,0,*65
1501031285.02,4016,18.5,72934.5,-1.49,-2.23,-2.23,0,*6F
1501031286.23,4017,18.5,72932.5,-1.49,-2.23,-2.23,0,*6E
1501031287.44,4018,18.5,72938.8,-1.49,-2.19,-2.23,0,*68
1501031288.65,4019,18.5,72932.5,-1.49,-2.23,-2.19,0,*69
1501031289.87,4020,18.5,72936.0,-1.49,-2.23,-2.23,0,*6A
1501031291.08,4021,18.5,72934.8,-1.49,-2.23,-2.23,0,*6B
1501031292.3,4022,18.5,72938.0,-1.47,-2.27,-2.35,0,*65
1501031293.5,4023,18.5,72934.3,-1.49,-2.27,-2.27,0,*69
1501031294.72,4024,18.5,72936.5,-1.47,-2.19,-2.23,0,*69
1501031295.94,4025,18.5,72938.0,-1.47,-2.23,-2.23,0,*61
1501031297.16,4026,18.5,72938.5,-1.47,-2.23,-2.23,0,*62
1501031298.38,4027,18.56,72936.5,-1.49,-2.23,-2.23,0,*6D
1501031299.59,4028,18.5,72932.3,-1.49,-2.27,-2.23,0,*66
1501031300.8,4029,18.5,72936.5,-1.47,-2.35,-2.27,0,*6E
1501031302.01,4030,18.5,72938.3,-1.49,-2.35,-2.35,0,*6B
1501031303.22,4031,18.5,72932.8,-1.49,-2.35,-2.27,0,*69
1501031304.44,4032,18.5,72932.8,-1.47,-2.27,-2.27,0,*67
1501031305.64,4033,18.5,72934.8,-1.49,-2.35,-2.27,0,*6B
1501031306.85,4034,18.5,72932.8,-1.49,-2.35,-2.27,0,*6C
1501031308.07,4035,18.5,72936.3,-1.47,-2.35,-2.35,0,*60
1501031309.28,4036,18.5,72934.8,-1.49,-2.35,-2.35,0,*6D
1501031310.5,4037,18.5,72934.8,-1.47,-2.35,-2.35,0,*62
1501031311.71,4038,18.5,72936.8,-1.49,-2.35,-2.35,0,*63
1501031312.92,4039,18.5,72936.5,-1.49,-2.27,-2.27,0,*62